| time (UTC) | temp F | wind direction | speed MPH | gust MPH | rain 1hr in | rain 24hr in | rain mn in | humidity % | barometer mb |
| 20260506044545 | 36 | 236 | 0.0 | 1.0 | 0.00 | 0.00 | 0.00 | 66 | 1012.3 |
| 20260506043045 | 36 | 232 | 0.0 | 0.0 | 0.00 | 0.00 | 0.00 | 68 | 1012.3 |
| 20260506041544 | 36 | 240 | 0.0 | 1.0 | 0.00 | 0.00 | 0.00 | 65 | 1012.2 |
| 20260506040035 | 36 | 256 | 0.0 | 0.0 | 0.00 | 0.00 | 0.00 | 66 | 1012.2 |
| 20260506034536 | 36 | 256 | 0.0 | 0.0 | 0.00 | 0.00 | 0.00 | 66 | 1012.2 |
| 20260506033035 | 36 | 256 | 0.0 | 0.0 | 0.00 | 0.00 | 0.00 | 71 | 1012.2 |
| 20260506031635 | 36 | 256 | 0.0 | 0.0 | 0.00 | 0.00 | 0.00 | 70 | 1012.3 |
| 20260506030033 | 36 | 256 | 0.0 | 0.0 | 0.00 | 0.00 | 0.00 | 68 | 1012.3 |
| 20260506024530 | 36 | 256 | 0.0 | 0.0 | 0.00 | 0.00 | 0.00 | 67 | 1012.3 |
| 20260506023028 | 36 | 256 | 0.0 | 0.0 | 0.00 | 0.00 | 0.00 | 63 | 1012.1 |
| 20260506021525 | 37 | 256 | 0.0 | 0.0 | 0.00 | 0.00 | 0.00 | 62 | 1012.0 |
| 20260506020042 | 37 | 260 | 0.0 | 2.0 | 0.00 | 0.00 | 0.00 | 60 | 1011.9 |
| 20260506014524 | 37 | 225 | 1.0 | 3.0 | 0.00 | 0.00 | 0.00 | 58 | 1011.8 |
| 20260506013021 | 38 | 302 | 0.0 | 4.0 | 0.00 | 0.00 | 0.00 | 59 | 1011.6 |
| 20260506011523 | 38 | 231 | 1.0 | 6.0 | 0.00 | 0.00 | 0.00 | 57 | 1011.5 |
| 20260506010024 | 38 | 294 | 0.0 | 7.0 | 0.00 | 0.00 | 0.00 | 59 | 1011.4 |
| 20260506004524 | 38 | 276 | 0.0 | 7.0 | 0.00 | 0.00 | 0.00 | 58 | 1011.4 |
| 20260506003019 | 38 | 273 | 0.0 | 5.0 | 0.00 | 0.00 | 0.00 | 56 | 1011.4 |
| 20260506001516 | 38 | 262 | 1.0 | 6.0 | 0.00 | 0.00 | 0.00 | 56 | 1011.5 |
| 20260506000023 | 38 | 322 | 0.0 | 4.0 | 0.00 | 0.00 | 0.00 | 57 | 1011.5 |
| 20260505234515 | 38 | 284 | 2.0 | 10.0 | 0.00 | 0.00 | 0.00 | 56 | 1011.4 |
| 20260505233013 | 39 | 285 | 2.0 | 12.0 | 0.00 | 0.00 | 0.00 | 55 | 1011.1 |
| 20260505231513 | 40 | 244 | 6.0 | 13.0 | 0.00 | 0.00 | 0.00 | 55 | 1011.1 |
| 20260505230018 | 40 | 331 | 5.0 | 14.0 | 0.00 | 0.00 | 0.00 | 55 | 1011.0 |
| 20260505224507 | 40 | 239 | 5.0 | 12.0 | 0.00 | 0.00 | 0.00 | 56 | 1010.9 |
| 20260505223007 | 39 | 188 | 5.0 | 14.0 | 0.00 | 0.00 | 0.00 | 58 | 1010.8 |
| 20260505221506 | 39 | 258 | 5.0 | 16.0 | 0.00 | 0.00 | 0.00 | 58 | 1010.8 |
| 20260505220004 | 39 | 223 | 3.0 | 11.0 | 0.00 | 0.00 | 0.00 | 60 | 1010.7 |
| 20260505214501 | 40 | 355 | 3.0 | 9.0 | 0.00 | 0.00 | 0.00 | 58 | 1010.7 |
| 20260505213100 | 40 | 240 | 3.0 | 17.0 | 0.00 | 0.00 | 0.00 | 57 | 1010.6 |
| 20260505211636 | 39 | 207 | 5.0 | 15.0 | 0.00 | 0.00 | 0.00 | 57 | 1010.5 |
| 20260505210058 | 39 | 202 | 5.0 | 17.0 | 0.00 | 0.00 | 0.00 | 57 | 1010.6 |
| 20260505204605 | 39 | 222 | 6.0 | 14.0 | 0.00 | 0.00 | 0.00 | 58 | 1010.4 |
| 20260505203057 | 39 | 217 | 5.0 | 16.0 | 0.00 | 0.00 | 0.00 | 58 | 1010.3 |
| 20260505201553 | 39 | 236 | 7.0 | 16.0 | 0.00 | 0.00 | 0.00 | 56 | 1010.2 |
| 20260505200052 | 40 | 251 | 4.0 | 13.0 | 0.00 | 0.00 | 0.00 | 55 | 1010.2 |
| 20260505194549 | 39 | 330 | 2.0 | 24.0 | 0.00 | 0.00 | 0.00 | 59 | 1009.8 |
| 20260505193047 | 40 | 326 | 3.0 | 13.0 | 0.00 | 0.00 | 0.00 | 57 | 1009.5 |
| 20260505191546 | 40 | 208 | 3.0 | 13.0 | 0.00 | 0.00 | 0.00 | 60 | 1009.3 |
| 20260505190044 | 39 | 229 | 6.0 | 17.0 | 0.00 | 0.00 | 0.00 | 59 | 1009.2 |
| 20260505184543 | 40 | 279 | 6.0 | 13.0 | 0.00 | 0.00 | 0.00 | 59 | 1009.0 |
| 20260505183039 | 40 | 330 | 4.0 | 13.0 | 0.00 | 0.00 | 0.00 | 57 | 1008.9 |
| 20260505181552 | 40 | 279 | 4.0 | 17.0 | 0.00 | 0.00 | 0.00 | 59 | 1008.7 |
| 20260505180036 | 40 | 224 | 3.0 | 12.0 | 0.00 | 0.00 | 0.00 | 58 | 1008.6 |
| 20260505174537 | 39 | 304 | 4.0 | 12.0 | 0.00 | 0.00 | 0.00 | 61 | 1008.7 |
| 20260505164559 | 38 | 255 | 5.0 | 13.0 | 0.00 | 0.00 | 0.00 | 70 | 1008.3 |
| 20260505163057 | 38 | 272 | 4.0 | 12.0 | 0.00 | 0.00 | 0.00 | 71 | 1008.0 |
| 20260505161555 | 39 | 310 | 5.0 | 15.0 | 0.00 | 0.00 | 0.00 | 71 | 1007.9 |
| 20260505153053 | 40 | 267 | 3.0 | 11.0 | 0.00 | 0.00 | 0.00 | 73 | 1007.3 |
| 20260505151551 | 40 | 269 | 3.0 | 13.0 | 0.00 | 0.00 | 0.00 | 75 | 1007.1 |
| 20260505124528 | 36 | 259 | 4.0 | 9.0 | 0.00 | 0.00 | 0.00 | 88 | 1005.4 |
| 20260505123039 | 37 | 210 | 2.0 | 13.0 | 0.00 | 0.00 | 0.00 | 87 | 1005.3 |
| 20260505121525 | 38 | 223 | 2.0 | 10.0 | 0.00 | 0.00 | 0.00 | 85 | 1005.0 |
| 20260505120021 | 38 | 298 | 2.0 | 6.0 | 0.00 | 0.00 | 0.00 | 83 | 1004.8 |
| 20260505114517 | 38 | 196 | 1.0 | 6.0 | 0.00 | 0.00 | 0.00 | 79 | 1004.6 |
| 20260505113015 | 38 | 261 | 1.0 | 6.0 | 0.00 | 0.00 | 0.00 | 79 | 1004.4 |
| 20260505111514 | 37 | 216 | 2.0 | 9.0 | 0.00 | 0.00 | 0.00 | 79 | 1004.3 |
| 20260505101505 | 38 | 300 | 2.0 | 8.0 | 0.00 | 0.00 | 0.00 | 79 | 1003.5 |
| 20260505100004 | 38 | 257 | 1.0 | 4.0 | 0.00 | 0.00 | 0.00 | 78 | 1003.4 |
| 20260505094502 | 38 | 233 | 0.0 | 4.0 | 0.00 | 0.00 | 0.00 | 79 | 1003.3 |
| 20260505093059 | 38 | 249 | 0.0 | 5.0 | 0.00 | 0.00 | 0.00 | 79 | 1003.2 |
| 20260505091559 | 37 | 233 | 0.0 | 0.0 | 0.00 | 0.00 | 0.00 | 79 | 1003.0 |
| 20260505090058 | 37 | 233 | 0.0 | 0.0 | 0.00 | 0.00 | 0.00 | 78 | 1002.9 |
| 20260505084602 | 37 | 230 | 0.0 | 3.0 | 0.00 | 0.00 | 0.00 | 77 | 1003.0 |
| 20260505083108 | 37 | 225 | 0.0 | 0.0 | 0.00 | 0.00 | 0.00 | 76 | 1002.9 |
| 20260505081553 | 38 | 250 | 0.0 | 0.0 | 0.00 | 0.00 | 0.00 | 75 | 1002.9 |
| 20260505080055 | 38 | 239 | 0.0 | 2.0 | 0.00 | 0.00 | 0.00 | 75 | 1002.9 |
| 20260505074551 | 38 | 253 | 0.0 | 1.0 | 0.00 | 0.00 | 0.00 | 74 | 1002.9 |
| 20260505073058 | 38 | 271 | 0.0 | 4.0 | 0.00 | 0.00 | 0.00 | 73 | 1002.8 |
| 20260505071548 | 39 | 273 | 0.0 | 8.0 | 0.00 | 0.00 | 0.00 | 73 | 1002.8 |
| 20260505070046 | 39 | 238 | 1.0 | 6.0 | 0.00 | 0.00 | 0.00 | 73 | 1002.9 |
| 20260505064610 | 39 | 244 | 0.0 | 5.0 | 0.00 | 0.00 | 0.00 | 73 | 1002.8 |
| 20260505063041 | 40 | 304 | 1.0 | 3.0 | 0.00 | 0.00 | 0.00 | 73 | 1002.6 |
| 20260505061540 | 39 | 281 | 2.0 | 4.0 | 0.00 | 0.00 | 0.00 | 73 | 1002.5 |
| 20260505060036 | 40 | 288 | 2.0 | 9.0 | 0.00 | 0.00 | 0.00 | 72 | 1002.1 |
| 20260505054545 | 40 | 264 | 3.0 | 8.0 | 0.00 | 0.00 | 0.00 | 72 | 1001.8 |
| 20260505053033 | 41 | 255 | 2.0 | 11.0 | 0.00 | 0.00 | 0.00 | 73 | 1001.8 |
| 20260505051528 | 41 | 309 | 5.0 | 8.0 | 0.00 | 0.00 | 0.00 | 72 | 1001.7 |